Theta_e
337 340 340 340 341 342 343 343 343 344 343 342 340 336 331 326 323 323 321 318 316 319 323 326 329 331 330 332 334 333 334 335 334 333 333 333 332 331 332 335 335 333 331 330 330 329 329 330 331 331 326 320 317 316 316 315 315 316 316 317 319 320 321 322 321 320 321 321 322 324 326 326 327 323 318 319 319 319 320 319 318 319 320 321 321
339 339 339 340 341 342 342 343 343 343 343 342 340 335 329 328 332 332 328 321 318 319 322 323 325 328 331 334 334 333 335 335 334 334 333 333 331 330 333 336 336 332 330 329 329 329 330 331 331 327 321 317 316 316 316 316 316 316 317 317 318 319 320 320 319 319 319 318 318 321 323 324 326 322 317 319 319 318 319 320 318 318 319 319 319
339 339 338 339 340 341 341 342 343 343 343 342 339 335 330 332 337 336 331 325 324 325 324 320 318 326 333 334 333 333 335 335 335 335 334 334 331 329 334 336 334 331 329 329 329 330 331 332 329 322 318 316 317 317 317 316 317 317 317 318 319 319 320 319 318 318 318 317 317 320 321 322 326 321 317 319 320 319 320 319 319 317 317 318 316
338 338 339 338 339 340 340 341 343 343 343 342 339 335 332 334 337 337 332 328 327 327 326 320 318 327 335 335 334 334 334 335 335 335 335 333 331 331 335 335 332 329 328 328 329 331 332 330 325 319 317 316 317 317 317 317 317 317 317 318 319 319 319 318 318 318 317 317 317 320 319 320 324 319 316 320 319 319 319 318 319 318 316 315 314
337 338 338 338 338 340 340 340 342 343 343 341 340 337 334 335 337 336 332 328 325 326 327 323 323 331 336 335 336 335 335 335 335 335 335 333 333 334 335 334 331 329 327 329 331 332 331 326 321 318 317 317 317 317 316 317 316 317 317 317 318 319 318 318 317 317 316 316 316 319 320 321 321 315 316 320 318 318 319 318 318 317 315 314 312
337 338 338 337 338 339 340 340 341 342 342 341 340 339 337 336 337 336 332 329 327 327 327 324 328 334 335 335 336 335 335 335 334 335 334 333 334 336 335 333 331 329 329 331 332 331 327 323 319 318 317 317 317 316 317 317 316 317 317 317 317 317 317 317 317 316 316 315 314 315 316 317 317 315 317 319 318 317 317 317 318 317 315 312 310
337 337 338 338 337 338 339 340 340 341 342 341 340 339 339 337 338 336 334 332 330 330 330 329 333 336 335 335 335 334 335 335 335 335 334 333 335 336 335 333 331 330 331 332 332 329 325 320 318 318 318 318 317 316 317 316 316 317 317 317 316 316 316 316 316 316 315 314 313 313 312 312 313 315 317 318 318 318 317 316 315 315 315 311 308
337 336 337 337 338 338 339 339 339 340 342 341 340 340 339 339 338 337 335 334 333 334 334 334 335 336 335 335 335 335 335 334 333 333 333 335 336 335 334 333 331 330 331 332 332 329 323 318 318 318 318 317 317 316 316 316 317 317 316 315 315 315 315 315 314 314 314 313 312 312 312 313 313 313 315 316 317 317 317 316 312 312 314 311 305
336 336 337 337 338 337 338 339 339 340 341 341 341 340 340 339 338 338 337 335 334 334 335 335 335 336 336 335 335 335 334 334 333 331 333 336 336 334 333 332 331 331 332 332 330 327 321 318 318 318 318 317 317 317 316 316 316 316 315 314 314 314 313 313 313 313 312 312 311 311 311 313 314 313 313 313 313 314 316 316 312 311 314 310 302
336 336 336 337 337 337 338 338 338 339 339 341 341 341 341 340 337 337 337 336 335 335 335 335 335 336 336 335 335 334 332 333 334 332 334 335 335 334 333 332 331 332 332 331 327 323 319 318 318 319 318 317 317 317 316 316 315 314 314 313 313 313 312 312 312 312 312 311 310 310 309 309 310 310 310 310 311 311 312 314 312 310 314 310 299
336 335 335 336 337 337 338 338 338 338 338 339 340 340 340 339 337 337 337 336 335 335 336 336 335 336 336 335 335 332 331 333 334 335 334 332 333 334 333 332 332 332 332 329 324 320 318 319 319 318 318 318 317 317 316 315 314 313 313 312 312 312 312 312 312 311 311 310 309 307 306 305 305 306 308 308 309 307 307 311 309 307 312 308 298
336 335 334 335 337 337 338 338 338 337 336 337 338 339 339 338 337 336 335 336 336 336 336 336 336 336 336 336 334 331 331 332 334 335 333 331 331 332 332 332 332 332 330 327 323 319 318 319 319 318 319 318 317 317 316 314 313 313 312 312 312 312 312 312 312 311 310 308 306 303 303 303 301 302 304 303 303 301 300 304 304 303 308 304 297
335 334 334 335 336 337 337 338 337 336 336 336 337 338 338 337 337 335 335 336 336 336 335 335 336 336 336 335 331 329 331 332 333 334 333 332 332 331 332 333 332 331 328 325 321 319 318 318 318 319 319 318 317 316 315 314 313 313 312 312 312 312 311 311 311 310 307 304 302 301 301 300 299 299 300 299 298 298 297 299 299 299 303 301 298
334 334 335 334 335 337 337 337 337 336 336 336 336 337 337 337 337 336 335 335 336 336 335 336 336 336 336 334 331 330 332 332 332 331 331 332 332 332 333 333 332 330 327 323 319 318 319 319 319 319 319 318 317 315 314 313 312 313 312 311 311 311 310 310 309 307 303 300 299 299 299 299 298 298 298 297 297 297 297 298 298 299 300 299 298
334 335 335 334 335 336 337 337 337 336 336 336 336 336 337 337 337 336 335 335 336 336 336 336 336 335 335 334 332 332 332 333 331 329 331 333 332 332 333 333 331 329 327 324 319 318 319 319 319 319 318 317 316 314 313 313 313 313 312 310 309 308 308 309 307 303 300 299 299 299 298 298 298 297 297 297 297 297 297 297 298 300 301 300 299
334 334 334 334 335 336 337 337 337 337 336 337 337 336 337 337 336 335 336 336 336 336 335 334 335 335 334 334 333 332 332 333 332 331 333 334 333 333 333 332 330 329 328 325 320 318 319 319 319 318 318 317 315 314 313 313 313 312 310 308 307 306 306 307 303 299 298 299 298 298 298 298 297 297 297 297 297 297 297 297 297 298 301 303 303
334 334 334 334 336 337 337 337 336 337 337 337 337 337 336 337 336 336 336 335 335 335 335 334 335 334 333 334 333 332 332 332 331 332 334 333 333 333 332 331 330 329 329 325 320 319 319 319 318 318 317 315 314 313 313 313 312 309 307 306 304 303 304 303 299 298 298 298 298 298 298 298 297 297 297 297 297 297 297 297 297 297 298 300 304
334 334 334 335 336 337 336 336 336 336 337 337 337 337 337 337 337 336 335 334 335 335 333 333 333 333 334 333 332 332 333 331 331 333 334 334 333 332 331 331 329 329 328 324 320 319 319 318 318 316 315 314 314 313 313 311 309 306 304 302 301 300 300 299 298 298 298 298 298 298 298 298 297 297 297 297 297 297 297 297 297 297 297 297 300
334 334 335 336 336 336 336 336 335 336 337 337 338 337 337 337 336 335 334 335 336 334 330 328 330 333 334 332 331 333 333 332 333 334 334 333 333 332 331 330 329 329 327 323 319 319 319 318 316 315 314 314 314 313 311 310 306 303 301 300 299 299 298 298 298 298 298 298 298 298 297 297 297 297 297 297 297 297 296 297 296 297 297 297 297
334 335 335 336 336 336 335 335 335 336 336 337 338 337 337 337 336 335 335 335 335 333 327 322 325 331 332 331 331 333 334 333 333 333 333 333 333 332 331 330 329 329 326 321 319 319 318 317 315 314 314 314 313 311 309 307 304 300 299 299 299 298 298 298 298 298 298 298 298 298 297 297 297 297 297 297 297 296 296 296 297 296 297 297 297
334 335 335 335 336 335 335 335 335 336 336 337 337 337 336 336 336 337 336 334 334 332 326 320 323 329 330 331 333 334 334 334 332 332 332 332 332 331 330 329 329 328 325 321 319 319 318 316 314 314 314 313 312 310 307 305 301 299 299 299 298 298 298 298 298 298 298 297 297 297 297 297 297 297 297 297 296 296 296 296 296 296 296 296 297
334 335 335 335 335 335 335 335 335 336 336 337 336 335 335 335 335 337 336 334 334 333 328 323 325 330 332 334 335 334 334 333 332 333 332 332 332 331 330 329 328 326 324 321 319 319 317 315 314 314 313 313 312 309 305 303 300 298 299 299 298 298 298 298 298 298 297 297 297 297 297 297 297 297 297 297 296 296 296 296 296 296 296 296 296
334 335 335 335 335 335 335 335 335 336 336 336 336 334 334 334 334 336 337 335 334 333 329 327 329 333 334 335 335 334 334 333 332 332 332 332 331 330 329 328 327 325 324 321 319 318 317 315 314 314 313 313 313 310 305 301 299 298 298 298 298 298 298 298 298 298 297 297 297 297 297 296 296 297 296 296 296 296 296 296 296 296 296 296 296
334 334 335 335 335 335 335 334 335 335 336 335 335 335 335 335 334 335 336 335 335 333 329 329 333 335 335 334 334 334 333 333 332 332 331 331 331 330 329 327 326 325 323 321 319 318 317 316 314 314 314 314 313 311 305 300 298 298 298 298 298 297 298 298 298 298 298 298 297 297 296 296 296 296 296 296 296 296 296 296 296 296 296 296 295
334 334 335 335 335 335 334 335 335 335 336 335 335 335 335 335 334 334 335 335 335 333 330 330 333 334 334 335 334 334 333 332 332 332 332 331 330 329 328 327 325 324 323 321 319 318 317 317 316 315 315 314 314 312 305 299 298 297 297 297 297 297 298 298 298 298 298 298 297 297 296 296 296 296 296 296 296 296 296 296 296 295 295 295 295
333 334 335 335 335 335 334 335 335 335 336 335 334 334 334 335 334 334 334 334 334 334 332 332 334 335 334 335 334 333 333 332 331 332 332 331 330 329 327 326 324 323 323 322 320 318 317 317 316 316 315 314 314 312 305 299 298 297 297 297 297 297 298 298 297 298 298 298 297 297 297 296 296 296 296 296 296 296 296 295 295 295 295 295 295
333 335 336 335 334 335 334 335 336 336 336 335 334 334 334 335 335 334 334 333 334 334 333 333 335 335 335 334 334 333 333 332 331 331 331 330 329 328 327 325 324 323 323 322 319 318 317 317 316 316 316 315 314 313 306 299 297 297 297 297 297 297 298 298 297 298 298 298 297 297 297 297 296 296 296 296 296 296 296 295 295 295 295 295 295
333 334 336 336 334 334 335 335 335 335 335 335 335 335 335 336 335 335 334 333 333 334 333 334 334 334 335 335 334 334 333 332 331 331 330 330 329 327 326 325 324 323 323 322 320 318 317 317 316 316 315 315 314 313 307 299 297 297 296 296 296 297 298 298 297 298 298 298 297 297 297 297 297 297 297 296 296 296 295 295 295 295 295 295 295
333 334 335 335 335 334 335 335 335 336 335 334 334 334 335 336 336 335 334 333 334 334 333 334 334 333 335 334 334 333 332 331 331 330 330 329 328 327 325 325 324 323 323 321 319 318 317 317 316 316 315 315 314 314 308 300 297 297 296 296 296 297 298 298 297 298 298 298 298 297 297 297 297 297 297 297 296 296 295 295 295 295 295 295 295
333 334 334 335 335 334 334 335 336 337 337 334 333 332 333 334 334 333 334 334 334 334 334 334 334 334 334 334 333 333 331 331 331 330 330 328 327 326 325 324 323 323 322 321 319 318 318 317 317 316 316 315 314 314 309 300 296 297 296 296 296 296 297 298 297 297 298 298 298 298 298 298 298 298 298 297 296 296 295 295 295 295 295 295 295
333 334 334 335 335 335 334 334 335 337 338 336 335 334 333 333 332 332 334 334 333 333 333 334 333 333 334 334 333 332 332 331 330 330 329 327 326 325 324 323 323 322 322 320 319 318 318 318 317 316 316 315 314 313 310 301 296 297 296 296 296 296 297 298 298 297 297 298 298 298 298 298 298 298 298 298 297 296 295 295 295 295 294 294 295
333 334 334 334 335 335 334 333 334 336 338 337 335 335 335 335 335 333 332 332 332 332 333 333 333 333 333 333 333 332 332 331 330 329 328 326 326 325 323 323 322 322 321 320 318 318 318 317 317 316 316 315 314 313 309 301 296 296 296 296 296 296 297 298 298 297 297 298 299 299 298 299 299 298 298 298 297 296 295 295 295 294 294 294 294
333 334 334 334 335 335 335 334 333 334 337 336 336 337 336 336 336 334 332 332 332 331 332 332 331 332 333 333 333 332 331 331 330 329 328 326 325 323 322 322 322 321 321 319 318 318 318 317 317 316 316 315 313 312 308 300 296 296 296 296 296 295 296 297 297 297 297 297 298 299 298 299 299 299 299 298 298 297 296 295 295 294 294 294 294
333 334 334 334 334 334 334 334 333 332 332 333 334 335 336 337 337 334 333 334 333 332 332 332 331 332 333 333 332 332 331 330 329 328 327 326 324 322 321 321 321 321 320 319 318 318 317 317 317 316 316 314 313 312 307 299 296 296 296 296 296 295 296 296 296 296 296 296 297 298 299 299 299 299 299 298 298 297 296 296 295 294 294 294 294
333 334 334 334 333 333 333 333 333 332 332 331 331 332 333 335 336 334 332 333 333 332 332 333 333 333 332 331 331 331 330 329 329 328 327 326 324 321 321 321 320 320 319 319 318 318 317 317 317 316 315 313 312 310 305 298 296 296 296 296 296 295 296 296 296 296 296 296 297 298 298 298 298 299 299 298 299 298 297 296 295 295 294 294 294
333 334 334 334 333 333 333 332 332 332 333 333 332 332 332 332 333 332 331 332 332 331 331 332 333 332 331 330 330 330 329 329 328 328 327 326 324 321 320 320 320 319 319 318 318 317 317 317 317 316 314 312 311 309 302 297 296 296 296 296 296 295 295 296 296 295 296 296 296 297 298 298 298 298 298 298 299 299 297 296 296 295 294 294 294
332 333 333 334 334 333 333 332 331 331 333 333 333 333 334 334 333 333 332 332 333 332 331 331 332 332 330 328 329 330 329 329 329 328 327 326 324 321 320 319 319 318 318 317 317 317 317 316 316 314 313 311 309 305 300 296 296 296 296 296 296 295 295 295 295 295 295 296 296 296 297 297 297 297 298 298 299 299 298 297 296 295 295 294 294
332 332 332 332 333 333 333 332 331 331 332 333 333 332 332 333 334 334 333 333 332 332 331 331 332 332 330 328 329 330 329 329 329 328 327 325 323 320 319 319 319 318 317 317 317 317 316 315 314 313 312 310 306 301 297 296 296 296 295 296 295 295 295 295 295 295 295 295 295 295 296 296 297 297 297 298 298 299 298 297 296 295 295 295 294
331 332 331 331 332 333 332 332 332 332 331 331 332 332 333 332 333 334 333 333 332 331 331 330 331 331 330 329 329 329 329 328 328 327 327 324 321 319 319 318 318 317 317 317 317 316 314 313 312 311 310 307 301 297 296 296 296 296 295 295 295 295 295 295 295 295 295 295 295 295 295 295 296 296 296 297 298 298 298 297 296 296 296 295 294
332 332 332 332 332 332 333 333 332 333 332 331 331 332 333 333 332 332 332 332 331 331 330 330 330 330 330 330 329 328 328 327 327 327 325 322 320 319 318 317 317 317 317 316 316 315 313 312 311 309 307 302 297 295 296 296 295 295 295 295 295 295 295 295 295 295 295 295 294 294 294 295 295 295 296 297 297 297 297 296 296 296 296 295 294
333 333 332 333 332 332 333 333 332 332 333 333 333 332 332 332 332 332 331 331 331 330 329 329 330 329 330 330 328 327 327 327 326 325 323 320 319 318 317 317 316 316 316 316 315 314 312 311 310 307 301 298 296 295 295 295 295 295 295 295 295 295 295 295 295 295 295 294 294 294 294 294 294 295 295 296 296 297 296 296 295 296 295 294 294
333 333 333 333 333 333 333 332 332 332 332 333 334 333 333 333 332 331 331 331 330 330 329 329 329 329 329 328 328 327 326 325 324 323 320 319 318 317 316 316 315 315 315 315 314 313 311 309 308 304 298 296 295 295 295 295 295 295 295 295 295 294 294 294 294 294 294 294 294 294 294 294 294 294 294 295 295 295 295 295 295 294 294 294 294
333 332 332 332 332 332 332 331 332 332 332 333 334 334 334 333 331 329 329 329 329 329 328 327 328 328 328 328 328 326 324 323 323 321 319 318 318 317 316 315 315 315 315 315 314 313 310 308 306 302 297 296 295 295 295 295 295 295 295 295 294 294 294 294 294 294 294 294 294 294 294 294 294 294 294 294 294 294 294 294 294 294 294 294 294
333 332 332 331 331 330 330 331 331 331 331 332 332 333 333 332 329 328 327 328 327 327 327 327 327 328 328 328 327 324 322 321 321 320 319 318 317 316 315 315 316 315 314 314 314 313 310 307 304 300 297 296 295 294 295 295 295 295 295 294 294 294 294 294 294 294 294 294 294 294 294 294 294 294 294 294 294 294 294 294 294 294 294 294 293
333 332 331 330 330 330 330 330 331 331 331 331 331 331 332 331 330 329 328 327 326 326 327 326 326 327 328 327 325 323 321 321 320 319 318 318 317 316 315 315 315 315 314 313 313 313 311 307 303 300 297 296 295 295 295 295 295 295 295 294 294 294 294 294 294 294 294 294 294 294 293 294 294 294 294 294 294 294 294 293 293 293 293 293 293
333 332 331 329 329 329 329 330 330 330 330 330 330 331 331 330 330 329 328 326 325 326 326 326 326 326 326 325 323 322 321 320 318 317 317 317 317 316 315 315 315 314 314 313 313 313 312 308 303 299 297 296 295 295 296 297 297 296 296 295 295 294 294 294 294 294 294 294 294 293 293 293 293 293 293 294 294 294 293 293 293 293 293 293 293
332 331 330 329 328 328 328 329 329 330 329 329 330 329 329 329 329 328 326 325 325 325 325 326 326 325 324 323 323 322 320 319 318 317 316 316 316 316 315 315 314 314 314 313 312 313 312 308 304 299 297 296 296 296 297 298 298 297 297 297 295 294 294 294 293 294 294 294 294 293 293 293 293 293 293 293 293 293 293 293 293 293 293 293 293
331 331 330 329 328 328 328 328 328 329 329 329 329 329 328 328 327 326 326 325 324 324 324 325 325 324 323 323 322 321 320 319 317 316 315 316 316 315 315 314 314 314 314 313 312 313 312 309 305 300 297 297 296 296 296 297 298 298 297 297 296 295 294 294 293 294 294 294 294 294 293 293 293 293 293 293 293 293 293 293 293 293 293 293 293
330 331 330 329 328 328 328 328 328 329 329 328 328 328 327 327 326 326 325 324 323 323 323 323 323 323 323 322 321 321 320 319 317 316 315 316 316 315 315 314 314 314 313 312 312 312 312 310 306 301 297 297 297 296 296 297 298 298 298 297 297 296 295 294 293 294 294 294 294 294 294 293 293 293 293 293 293 293 293 293 293 293 293 293 293
329 329 328 328 328 328 327 328 328 328 328 327 327 327 327 326 324 324 324 324 323 323 323 323 323 323 322 322 321 320 319 318 317 316 316 316 315 315 315 314 314 314 313 312 311 310 309 308 306 302 297 296 296 296 295 297 298 300 299 299 299 298 296 294 293 294 294 294 294 294 294 294 293 293 293 292 292 292 293 293 293 293 293 292 292
328 328 327 326 326 327 326 327 327 326 326 326 326 326 325 324 324 323 323 323 323 323 323 322 323 322 322 321 320 319 318 317 316 316 316 316 315 315 315 314 314 314 312 311 310 309 307 305 304 301 298 296 296 296 297 298 299 300 300 300 300 300 298 295 294 294 294 294 294 294 294 294 293 293 293 292 292 292 292 292 292 292 292 292 292
Wind_Speed
19 16 21 25 26 27 26 24 23 24 25 25 25 25 23 23 24 24 23 23 23 24 24 24 24 22 22 23 22 19 17 15 14 12 9 6 4 3 4 4 5 5 5 5 5 6 8 10 13 15 13 11 10 10 10 10 10 11 12 12 11 11 11 11 12 10 9 7 5 4 6 8 7 7 15 14 12 12 11 13 15 14 13 13 14
16 18 22 24 26 28 27 26 24 25 27 26 26 25 24 25 24 23 23 23 24 24 24 23 23 22 22 23 21 18 16 15 13 10 7 5 4 4 4 4 5 5 6 6 6 7 9 11 14 13 11 10 9 9 9 10 10 10 11 11 11 11 11 12 12 10 10 8 6 4 3 5 6 5 15 13 11 12 11 12 15 15 13 12 14
17 17 20 24 27 28 29 28 26 26 27 28 27 26 27 27 24 23 23 24 24 23 22 22 22 22 22 21 18 16 16 15 12 9 6 5 5 4 4 4 5 5 6 6 6 7 10 12 13 10 9 9 9 9 9 9 10 10 10 10 11 12 12 12 10 10 10 9 9 6 4 2 3 5 14 10 9 11 11 11 12 14 15 15 18
20 17 17 23 26 27 29 29 27 27 28 30 30 29 28 27 26 23 23 24 24 23 22 21 22 23 22 19 17 17 16 14 12 9 8 6 5 5 5 5 5 6 6 6 6 9 11 12 10 8 8 8 8 8 8 8 8 8 9 10 10 11 10 10 11 12 12 11 11 7 6 6 2 8 12 7 8 10 11 12 11 12 16 19 22
23 19 17 20 25 27 27 29 28 28 30 31 31 31 29 27 26 24 24 24 24 23 20 19 23 25 23 20 18 17 15 14 13 11 9 6 6 6 6 6 6 6 5 6 7 10 11 10 8 7 7 7 7 7 7 7 8 8 9 9 8 9 9 11 12 12 13 13 12 8 6 5 4 10 10 5 7 9 9 12 10 11 17 21 23
21 17 16 19 23 25 26 28 29 28 31 32 31 32 30 27 26 25 25 25 25 23 21 22 26 26 23 21 20 18 16 14 13 11 9 7 7 7 7 7 6 5 5 6 8 10 10 8 7 6 5 6 6 7 7 7 8 8 8 8 8 8 10 11 12 13 13 13 13 11 9 6 6 8 8 5 7 7 7 9 10 11 15 20 22
19 17 16 19 22 25 26 27 29 29 31 33 32 32 31 28 27 27 27 27 26 26 27 28 28 26 23 21 18 16 14 13 12 11 9 9 8 8 8 7 6 5 5 7 9 10 9 7 6 5 4 5 6 6 6 7 7 8 8 8 8 9 10 11 12 13 13 13 14 13 11 10 9 8 7 6 6 6 7 8 10 11 12 17 22
18 18 18 19 22 25 25 26 28 29 30 33 33 33 32 30 30 30 29 29 28 28 30 28 26 23 21 19 17 14 12 12 12 11 9 9 8 8 8 7 5 5 5 7 10 10 9 6 5 4 4 5 5 5 6 7 7 7 8 9 9 10 11 11 12 12 12 12 13 12 12 10 10 10 7 5 6 7 7 9 12 12 10 15 22
17 18 18 18 21 23 24 25 26 29 31 33 34 33 33 32 33 33 32 32 30 28 28 25 22 22 21 19 16 14 12 11 11 12 11 9 9 9 8 6 5 5 6 8 10 10 8 5 4 2 3 4 4 5 6 7 8 8 9 10 10 11 11 11 11 12 12 12 12 11 11 9 8 9 8 7 7 7 7 9 12 12 9 13 21
17 18 18 19 22 23 24 23 24 28 30 33 34 34 34 33 32 32 32 31 30 28 27 23 20 21 21 18 15 13 13 12 11 11 9 8 9 10 8 6 5 5 6 8 9 9 6 4 3 1 3 4 4 5 6 7 8 9 9 10 11 11 11 12 12 12 12 12 11 10 10 10 9 9 10 9 9 9 9 10 12 13 9 12 20
17 18 20 20 22 24 24 23 23 26 29 32 34 35 35 32 27 26 25 25 27 28 26 23 20 21 20 16 12 12 14 13 11 10 9 7 9 10 8 7 5 5 7 7 8 7 4 3 1 2 3 3 4 5 6 7 8 9 10 11 12 12 11 12 12 12 12 12 11 11 11 12 12 11 10 11 10 11 12 11 13 13 9 12 19
17 19 22 20 21 23 23 23 22 25 28 30 33 34 32 27 24 22 19 20 25 26 24 23 21 22 20 15 12 12 14 13 11 10 9 8 9 9 8 7 5 6 7 7 7 6 3 2 0 2 3 3 4 5 6 8 9 10 11 11 12 12 11 11 11 12 12 12 12 13 14 14 13 13 13 13 13 14 15 13 13 14 10 12 19
19 21 22 22 23 23 23 23 22 25 28 29 31 32 27 23 21 20 19 21 23 25 25 24 24 23 19 15 13 14 13 12 11 9 8 7 7 8 7 6 5 6 7 7 7 5 3 2 0 1 2 3 4 5 7 8 9 10 10 11 12 11 11 10 11 12 12 13 13 14 14 13 14 15 15 15 16 17 18 17 16 16 14 14 19
22 23 24 24 25 25 24 23 23 25 27 27 27 27 24 22 21 20 21 22 22 24 27 26 25 22 16 13 13 14 13 11 10 9 8 7 6 7 6 5 5 6 6 6 6 5 3 2 1 2 2 3 4 5 7 8 8 9 10 11 11 11 10 10 11 13 13 13 13 14 14 14 15 16 16 17 18 19 20 20 19 17 17 18 21
23 24 24 25 26 26 24 23 23 24 24 24 24 24 24 23 22 21 22 22 21 25 26 24 21 17 13 12 12 13 12 11 11 11 9 7 6 7 6 5 6 5 5 6 6 5 3 2 1 2 2 3 4 5 7 7 7 9 10 10 10 10 10 10 12 13 13 13 13 14 14 14 16 17 18 19 20 21 21 21 21 18 15 17 21
23 25 26 25 25 25 23 21 22 23 23 23 23 23 24 24 22 20 20 21 21 23 22 19 17 14 12 12 13 14 12 10 12 13 11 9 7 8 7 6 6 5 5 6 6 4 4 2 1 2 2 3 4 5 6 7 8 9 9 10 10 9 10 11 12 12 12 13 14 14 14 15 17 18 19 20 21 21 22 22 23 22 17 14 16
24 25 26 25 24 24 24 23 23 23 24 23 22 22 23 25 23 20 19 19 19 20 19 16 15 13 12 14 15 15 12 11 12 13 12 11 9 9 8 7 5 4 5 5 5 5 4 2 1 2 2 2 4 5 7 7 8 8 9 9 9 9 10 10 11 11 12 13 13 13 14 16 18 18 19 21 21 22 23 23 24 24 23 18 14
22 23 23 23 22 23 25 25 25 25 25 23 20 20 21 23 22 21 20 20 20 21 19 16 15 14 15 17 16 13 13 14 14 13 13 12 11 9 8 7 5 5 5 5 5 5 3 2 1 1 1 3 4 6 7 7 7 8 8 8 8 9 10 10 10 11 13 13 12 13 15 17 17 18 19 20 21 22 23 24 24 23 23 23 20
21 22 23 22 22 24 26 26 24 24 24 21 18 18 19 21 22 21 19 19 20 21 21 19 17 16 17 17 15 13 14 16 16 15 13 12 10 9 8 6 4 4 4 5 5 4 3 2 2 2 3 4 5 6 6 6 7 8 8 8 9 10 10 9 10 12 13 13 12 13 16 17 16 17 19 20 21 22 23 23 23 23 22 22 22
21 23 24 23 23 25 27 26 24 23 22 20 19 18 18 20 21 19 18 19 21 20 20 20 18 17 17 17 15 15 17 17 16 16 14 12 10 9 8 6 4 5 4 5 6 4 3 2 3 4 4 4 5 6 6 7 7 8 8 8 9 10 10 9 11 12 13 12 12 14 16 16 15 16 18 20 20 21 22 23 22 23 22 20 21
21 22 23 23 24 25 27 26 25 22 20 19 20 19 19 20 21 19 19 21 21 20 20 19 18 18 18 17 17 18 19 18 17 16 14 12 11 10 8 6 5 5 4 6 6 5 3 3 5 5 5 5 6 7 7 7 8 8 8 9 9 10 9 10 11 12 12 12 12 14 15 15 14 16 18 18 19 20 21 22 23 23 22 21 20
20 21 22 23 24 26 27 26 24 22 20 20 20 20 21 22 22 20 20 22 22 21 20 19 19 18 18 18 18 19 20 19 18 16 14 13 12 10 9 7 6 5 4 7 7 5 4 5 6 6 5 5 6 7 7 7 7 7 8 8 9 9 9 10 11 11 12 11 12 13 14 14 13 15 17 17 18 19 20 22 23 23 23 22 21
17 19 21 22 24 26 27 26 23 22 22 22 21 22 23 23 22 21 22 23 23 22 21 20 20 19 18 19 19 20 20 19 18 17 15 15 13 11 9 8 6 4 6 8 8 6 5 6 7 6 5 5 6 8 8 7 7 7 8 8 8 9 9 9 10 11 12 11 12 13 14 13 13 14 16 16 17 18 20 21 22 23 23 23 22
17 19 22 23 24 25 26 25 24 23 24 24 24 24 23 23 22 22 22 24 24 22 22 22 22 20 19 20 19 19 20 19 18 17 16 16 14 12 10 9 7 5 7 10 9 8 7 7 8 6 5 5 6 7 7 6 6 7 7 7 7 8 9 9 10 11 11 11 12 13 13 13 13 14 15 16 16 17 18 19 21 22 22 22 22
19 20 23 25 25 25 25 24 24 25 25 25 25 26 26 25 24 23 23 24 24 23 23 24 23 22 21 21 20 20 20 20 19 18 18 16 15 12 10 9 8 6 8 11 11 9 8 7 7 6 5 5 5 6 6 5 5 6 6 6 7 8 8 9 10 10 11 11 12 13 14 13 13 14 15 15 14 15 17 18 19 20 20 21 21
22 22 24 26 25 24 23 23 24 25 26 26 25 27 27 26 25 24 23 24 24 23 23 24 24 23 22 22 22 22 21 21 20 19 18 17 15 13 11 10 8 7 9 12 12 10 8 7 7 6 5 4 4 5 5 4 4 5 6 6 6 7 8 9 9 10 10 11 13 14 14 13 13 15 15 15 14 14 15 17 18 19 19 20 21
23 23 25 26 25 23 23 24 25 26 26 25 24 25 28 27 26 25 24 23 24 23 23 25 25 23 22 22 22 22 21 21 19 18 18 17 15 13 11 10 8 8 11 13 13 11 9 8 6 5 5 4 3 3 4 3 3 5 5 5 6 6 7 8 9 10 10 11 13 14 14 14 14 15 15 15 14 14 15 16 17 18 18 19 21
24 24 24 25 25 24 24 25 25 26 27 25 23 24 27 28 26 25 24 23 23 23 23 23 24 24 23 22 23 22 21 20 19 19 18 17 15 13 11 10 9 9 12 14 14 11 10 8 7 6 5 4 3 2 2 2 2 4 5 5 6 6 7 7 8 9 10 10 12 13 14 14 14 14 15 15 15 14 15 16 17 18 18 20 21
25 25 25 25 25 25 25 25 24 26 28 26 24 25 27 27 27 26 25 23 21 22 22 21 21 23 24 23 22 22 21 20 19 19 18 16 15 13 12 12 12 12 13 15 15 12 10 9 7 6 5 4 3 2 1 1 1 3 5 6 6 7 7 7 7 8 9 10 10 11 13 13 13 14 15 15 15 15 15 16 17 17 18 20 21
24 26 26 25 25 25 25 25 24 25 28 28 25 26 27 28 28 26 25 23 21 21 23 22 21 22 23 22 22 22 22 21 20 20 19 16 14 13 13 14 15 15 15 16 16 14 11 8 7 6 6 5 4 2 1 1 2 3 5 6 6 7 7 7 7 7 8 9 9 10 11 12 12 13 14 15 16 15 15 15 16 17 18 19 20
23 25 26 24 24 25 25 26 25 25 29 29 25 25 26 25 25 25 25 25 23 23 24 23 22 23 23 22 22 23 23 22 21 20 19 16 14 13 14 15 16 17 18 18 17 15 12 9 7 6 5 5 5 3 2 2 2 3 5 6 6 6 7 7 7 6 7 8 8 8 9 10 10 11 13 14 15 15 15 15 15 16 17 18 19
23 25 27 26 26 27 27 28 27 26 27 27 26 29 30 27 25 24 24 24 23 23 24 24 24 25 25 24 23 24 25 24 23 20 19 17 14 13 15 17 18 19 19 19 18 15 13 10 8 7 6 6 6 5 3 3 3 4 6 7 7 7 7 7 7 7 7 7 8 8 8 9 9 9 11 13 14 15 15 14 15 16 17 18 18
23 25 26 26 26 27 28 29 29 28 26 25 28 32 33 32 27 23 23 24 23 22 23 24 24 25 26 26 26 26 26 25 22 20 18 15 13 14 16 17 18 20 20 19 18 15 13 11 9 8 8 7 7 6 4 4 4 5 7 8 8 7 7 7 7 7 6 7 7 7 8 8 8 8 9 11 13 14 14 14 14 15 16 17 17
22 22 23 23 23 24 26 27 27 27 26 27 29 31 31 32 28 20 20 25 24 21 23 24 25 26 27 27 26 25 25 24 21 19 17 14 12 13 16 17 18 20 20 19 18 15 13 12 10 9 9 9 9 7 6 5 6 7 8 9 9 9 8 7 7 7 6 6 6 7 7 6 7 7 7 9 10 12 13 13 13 14 15 16 16
20 21 22 23 23 23 24 25 24 24 25 25 28 29 28 28 27 20 19 25 25 21 23 28 30 28 26 25 26 26 25 24 21 18 16 13 11 13 16 17 19 20 20 19 17 15 14 12 11 11 11 11 10 8 7 7 7 8 9 10 10 9 9 8 8 7 7 6 5 6 6 5 6 6 6 7 8 10 11 11 12 13 14 14 14
18 19 20 21 23 23 23 24 23 24 25 25 26 29 29 29 28 23 23 29 32 25 24 31 35 31 25 24 27 28 26 24 20 18 16 14 12 13 16 19 21 21 20 19 17 16 14 13 12 12 12 12 11 9 8 8 8 9 10 11 11 10 9 9 8 7 7 6 5 6 6 5 5 5 5 6 6 8 9 10 11 12 12 13 13
15 15 16 17 19 20 22 23 23 24 26 26 25 27 30 32 32 29 26 30 33 29 25 30 36 31 24 23 26 28 26 24 21 18 16 14 13 15 18 20 22 22 20 19 17 16 14 13 13 13 13 12 11 10 9 9 10 11 11 11 11 11 10 9 8 7 7 6 6 6 6 6 5 5 5 5 5 6 7 8 9 10 11 12 12
13 13 14 16 16 18 20 22 22 23 25 26 25 25 25 28 31 33 31 31 33 31 27 30 37 35 27 24 25 27 26 25 21 17 15 14 14 17 19 20 21 20 19 18 17 16 15 14 14 13 13 12 11 10 10 11 11 12 12 12 11 11 10 9 8 8 7 7 6 6 6 6 5 5 5 5 5 5 5 6 8 9 10 10 11
10 9 10 13 14 16 18 19 20 22 23 23 24 25 26 26 27 30 32 31 31 31 29 30 38 39 32 26 24 24 25 24 21 17 16 15 15 19 20 19 20 19 18 17 16 16 15 16 15 14 13 12 12 11 11 12 13 14 14 13 12 11 10 9 9 8 7 7 7 6 6 6 6 5 5 5 4 4 3 4 6 7 7 8 9
8 8 7 9 12 15 16 17 18 21 22 21 20 22 26 26 25 27 30 31 31 32 31 32 35 35 33 29 24 20 21 22 20 17 16 16 17 21 21 20 20 19 17 15 15 15 16 16 16 15 14 13 13 12 12 13 15 15 15 14 12 11 10 9 9 8 7 7 7 7 6 6 6 5 5 5 4 3 2 3 5 5 4 6 8
7 7 7 8 10 12 13 15 16 17 21 23 22 21 23 25 26 28 30 30 30 31 32 32 31 31 32 30 23 19 21 22 20 17 17 18 21 23 21 20 20 18 16 15 14 14 16 17 16 16 15 14 13 12 13 14 16 16 16 15 13 11 10 8 8 8 7 7 7 7 7 6 6 5 5 5 4 3 1 1 3 3 3 5 7
6 6 6 7 9 10 11 14 15 15 18 22 24 22 23 28 31 31 29 28 27 28 30 30 29 31 31 27 22 23 23 21 19 18 19 21 24 23 21 20 19 18 17 15 14 15 17 18 17 17 16 15 14 14 14 15 16 16 16 15 13 12 10 9 8 7 7 7 7 7 7 6 6 6 5 5 4 3 2 2 2 2 3 4 6
4 3 4 5 6 7 8 10 13 14 14 17 21 22 22 26 29 28 26 27 27 27 29 29 30 32 30 23 23 25 21 17 17 20 21 22 24 23 22 20 19 19 17 15 13 15 17 18 18 18 18 17 16 16 15 15 16 17 16 15 14 12 11 10 8 7 7 7 7 7 7 6 6 6 6 6 5 4 4 3 2 2 3 4 4
3 2 3 3 3 4 5 6 8 11 13 15 17 17 18 23 26 23 21 22 24 25 28 29 30 31 28 24 25 24 20 16 18 21 22 23 24 23 22 22 21 20 18 15 13 15 17 19 20 20 19 19 18 18 17 16 16 16 16 15 14 13 12 10 9 8 7 7 6 6 7 7 7 7 6 6 6 5 5 4 3 3 3 3 3
2 2 2 1 2 2 3 4 7 9 13 17 16 15 16 21 24 21 19 20 22 24 26 28 30 31 29 27 26 23 19 17 20 21 23 25 25 23 23 23 22 20 18 16 14 14 17 19 21 21 20 20 19 19 18 18 17 16 16 15 14 13 12 11 9 9 8 7 6 6 6 7 7 8 7 7 7 6 6 5 4 3 3 3 3
2 2 2 2 1 2 2 4 7 9 11 15 16 16 17 18 19 18 17 19 23 25 25 27 30 32 31 28 25 22 20 19 19 19 21 23 23 23 23 23 23 21 19 16 14 14 16 20 22 22 21 21 21 21 20 19 18 18 17 16 15 14 13 11 10 9 8 7 7 6 7 8 8 8 8 7 7 7 6 5 4 4 3 3 2
3 3 3 3 3 2 2 3 6 7 7 10 13 15 16 17 17 16 15 16 20 24 25 27 29 30 28 25 23 21 20 19 18 19 21 22 22 22 22 22 22 21 19 16 14 15 17 20 23 23 22 21 21 21 21 21 20 19 18 17 16 15 14 12 11 10 9 7 6 6 7 8 8 8 8 7 7 6 6 5 5 4 3 3 2
5 5 5 6 6 4 3 3 3 4 4 5 8 11 14 15 16 15 13 14 18 22 25 27 27 27 26 24 21 19 17 17 19 20 21 22 22 21 21 20 19 18 16 13 13 14 16 19 22 23 23 23 23 23 23 23 21 20 19 18 16 15 14 13 12 11 10 8 7 6 7 8 9 8 7 7 7 6 6 6 5 4 4 3 3
7 7 7 8 8 6 3 1 2 3 4 5 6 7 10 11 12 12 12 12 14 19 23 25 25 25 24 22 19 17 17 17 18 18 19 20 20 19 19 19 18 15 12 9 8 10 12 15 19 22 23 24 23 22 22 22 20 19 18 16 14 13 13 13 12 11 10 9 8 7 7 8 8 8 7 7 6 6 6 5 5 4 4 3 3
9 9 8 8 6 5 3 2 1 2 5 6 5 6 7 8 10 10 11 11 12 16 20 23 23 23 23 21 19 18 18 18 18 18 20 21 21 20 20 20 18 17 13 8 7 7 8 11 16 20 21 21 18 16 16 19 19 19 18 15 11 10 10 12 13 12 11 11 9 8 7 8 8 8 8 7 7 7 6 6 5 5 5 4 4
11 10 10 9 7 6 5 4 3 2 3 2 1 3 5 6 7 9 10 10 11 14 18 21 22 22 22 20 18 18 18 18 18 19 21 21 21 22 22 20 19 19 15 10 7 7 8 10 14 17 19 20 18 15 14 17 18 19 18 16 13 11 12 13 13 13 13 12 11 10 9 8 9 9 9 8 8 8 7 7 6 6 6 5 5
Wind_Direction
223 221 224 225 225 227 228 225 220 216 217 217 218 218 213 212 212 210 207 204 203 203 202 202 201 198 193 189 186 185 191 197 194 192 191 194 209 231 244 260 275 285 295 305 315 328 334 333 330 328 330 334 339 348 358 3 6 5 1 359 2 7 13 13 8 9 11 6 349 304 282 276 265 327 347 342 345 354 354 349 345 345 346 346 348
225 225 227 228 226 226 228 225 220 216 217 216 217 215 209 209 211 208 204 201 200 200 201 203 201 197 195 191 187 188 195 199 197 197 196 203 225 235 243 262 276 283 292 302 317 329 330 327 326 327 331 336 343 355 2 7 9 5 0 0 2 4 9 9 7 11 14 17 11 341 306 285 245 322 347 338 344 358 360 354 349 350 353 352 353
226 224 227 231 228 225 227 226 221 218 218 217 215 213 209 208 209 206 199 197 199 196 197 200 195 193 197 194 189 193 197 196 198 205 211 222 236 236 240 252 262 272 284 299 318 326 324 324 324 327 335 341 351 0 4 8 8 4 2 1 0 2 4 5 11 20 22 21 21 23 30 35 206 333 350 347 2 11 9 2 355 356 360 359 2
227 221 222 230 229 225 226 225 222 218 217 217 215 213 210 210 210 203 196 198 197 192 196 199 191 191 196 195 195 198 196 194 199 212 222 229 234 230 231 240 249 263 279 300 317 321 322 321 322 330 341 349 357 2 4 7 7 4 3 2 2 3 3 8 18 23 25 26 28 31 34 47 44 347 356 359 4 8 6 7 5 0 2 2 3
228 220 217 225 227 224 224 225 223 216 216 218 217 215 212 212 212 203 196 199 193 190 200 197 187 190 195 196 198 194 192 200 206 214 221 223 224 223 223 232 245 260 279 303 317 320 321 319 322 335 345 355 3 5 4 5 7 7 8 10 11 9 11 18 21 20 22 25 29 36 36 40 4 354 8 3 350 2 7 10 7 354 358 2 1
231 222 216 221 223 222 223 225 224 218 215 218 218 218 216 213 214 205 197 199 192 188 194 187 185 193 196 196 195 189 193 206 214 222 227 223 218 219 223 229 242 261 284 308 319 321 319 317 325 336 348 3 9 9 5 5 11 14 18 22 20 20 23 22 19 19 20 19 23 31 32 26 8 7 15 356 347 2 7 11 9 355 357 2 359
231 223 218 223 222 221 222 223 224 221 216 218 220 221 219 214 214 207 199 201 194 185 185 184 187 193 192 193 194 193 202 214 220 224 226 222 216 219 225 228 241 267 293 313 322 322 318 315 324 334 354 12 13 9 8 12 19 24 27 28 27 28 27 23 21 21 20 16 17 21 21 19 20 24 20 360 349 350 353 357 359 357 354 359 0
228 221 219 225 226 223 221 220 224 225 221 219 220 222 222 218 215 207 199 201 198 189 187 189 192 193 189 189 194 200 213 223 220 213 211 214 216 222 225 229 247 275 302 322 325 319 311 312 321 334 6 19 14 11 16 23 29 31 30 29 31 30 25 24 25 24 21 18 16 15 16 20 22 24 26 19 357 342 346 349 352 358 352 352 358
226 221 217 221 225 223 220 220 224 227 224 222 222 222 224 222 218 208 196 197 201 197 194 194 196 197 193 190 194 202 210 214 210 205 205 209 217 222 223 233 256 285 315 326 320 310 303 310 313 334 23 25 14 19 26 31 33 32 31 30 31 29 24 24 26 25 24 23 20 19 20 23 22 21 22 23 12 357 352 345 349 2 1 353 359
224 220 215 218 224 225 223 221 223 226 225 224 225 224 224 224 219 207 194 193 202 205 201 196 193 196 198 194 197 203 201 200 201 203 206 215 227 227 227 243 261 293 316 319 312 305 303 310 308 1 38 25 20 29 32 33 32 30 32 32 30 28 23 23 24 23 23 22 22 22 21 23 22 19 17 19 20 11 1 347 349 4 6 2 7
217 218 218 220 224 227 226 219 217 222 224 223 226 227 227 225 211 199 193 189 200 209 203 193 187 189 196 196 199 205 200 197 201 201 199 214 236 235 233 247 267 298 310 312 311 309 309 304 307 40 39 27 28 35 34 33 32 32 33 31 29 26 20 20 21 20 19 17 16 18 19 21 20 21 21 21 20 15 9 357 357 13 16 12 18
210 216 218 216 218 222 220 213 211 218 223 222 224 228 228 219 202 197 197 190 199 210 201 189 186 187 191 192 196 205 203 201 205 202 198 213 236 238 238 249 276 302 307 314 314 310 306 290 327 49 36 31 33 37 38 35 34 33 31 29 26 21 16 18 18 16 16 13 14 18 20 19 19 25 28 24 22 21 23 18 14 28 30 19 29
208 214 214 212 215 215 211 208 208 216 223 221 223 227 222 211 209 210 205 196 201 208 201 192 189 186 187 187 189 200 205 207 206 201 206 223 237 238 237 251 282 299 308 317 313 298 278 253 93 54 37 30 31 37 42 40 36 31 27 26 23 17 14 17 17 15 14 14 18 22 22 22 26 32 31 28 31 33 37 39 36 41 42 27 30
206 209 210 213 216 215 211 208 210 216 222 223 223 223 214 210 215 214 210 205 203 207 204 197 191 185 184 186 190 201 206 207 205 197 205 223 231 231 231 249 276 291 306 317 306 282 247 213 138 62 36 20 25 41 48 43 35 29 25 24 21 16 16 19 18 16 16 20 25 27 27 30 34 36 36 38 44 45 44 45 46 47 49 42 34
201 205 210 214 215 215 212 208 211 215 220 223 222 216 212 211 210 210 212 206 200 207 205 198 192 185 185 194 201 208 209 206 203 198 201 212 219 224 230 248 267 281 299 311 298 264 209 177 120 58 20 8 29 49 53 44 34 29 26 26 21 17 21 21 19 19 22 28 33 33 34 36 40 42 45 49 50 50 48 47 49 51 48 45 41
199 206 210 213 214 213 209 205 208 213 217 220 219 214 211 208 203 205 207 198 199 208 205 198 196 188 192 209 211 209 206 200 202 200 194 198 211 219 232 247 258 278 297 302 284 234 177 150 96 43 3 12 45 57 55 43 35 30 27 28 23 22 27 24 21 25 33 39 39 39 40 43 47 49 52 54 53 52 52 49 49 51 50 47 42
199 207 209 211 211 208 206 202 201 205 213 219 220 217 208 201 202 203 197 191 195 201 200 200 197 191 202 218 216 208 199 193 201 202 191 191 205 216 229 242 251 280 298 291 259 211 166 135 85 25 1 43 61 60 54 43 37 34 31 32 28 31 34 27 28 37 44 47 44 44 49 52 54 55 55 56 55 53 52 51 49 49 51 53 51
199 205 207 206 202 201 204 205 202 204 212 217 217 216 207 198 197 192 184 189 193 192 196 199 197 200 211 217 215 205 194 193 198 196 189 194 207 218 228 237 251 282 292 271 233 197 157 132 96 44 52 78 70 62 56 49 44 40 39 40 39 43 39 32 41 51 52 51 49 52 57 57 57 58 58 58 57 55 53 52 51 50 50 52 57
196 199 200 197 193 198 203 206 207 208 210 210 205 206 206 196 188 180 178 191 197 193 194 196 197 206 215 215 211 201 195 197 194 187 187 198 211 222 228 232 252 280 279 247 217 185 156 136 112 103 103 89 75 69 63 57 51 47 49 51 51 51 43 42 53 58 58 56 56 60 61 61 60 61 61 60 58 57 55 54 53 52 50 50 56
193 195 196 193 193 200 205 205 205 205 207 206 198 198 203 197 192 189 184 190 201 201 197 194 196 204 209 209 206 203 200 197 190 184 188 200 212 221 224 226 251 275 261 226 206 181 161 137 123 122 114 97 80 74 69 61 55 55 59 59 58 55 48 53 61 63 64 62 62 65 65 63 63 63 64 63 61 60 58 57 56 54 53 51 57
192 192 193 192 196 202 204 203 203 202 203 201 196 196 201 203 203 200 188 189 201 206 201 196 195 200 203 204 203 202 199 191 185 184 189 202 213 218 217 221 246 269 249 217 202 183 167 140 134 134 121 103 83 75 70 63 58 62 66 64 62 59 55 62 68 69 71 68 67 69 69 67 66 65 67 65 64 63 60 59 57 56 55 53 56
192 192 191 191 197 201 201 203 203 200 197 197 199 203 208 211 210 202 192 195 202 204 203 198 194 197 200 203 202 195 190 186 182 184 192 206 215 213 214 228 251 262 232 213 205 188 169 145 140 138 123 104 82 72 69 63 62 67 70 68 65 64 64 70 76 78 76 73 72 74 73 71 69 68 69 68 66 64 61 59 57 54 54 53 53
191 192 191 192 198 200 199 203 203 195 191 195 201 209 214 216 213 204 195 199 204 204 202 196 193 196 200 204 200 189 186 186 183 187 196 207 214 212 215 236 255 251 220 211 204 191 172 150 143 139 125 106 79 69 68 65 66 71 72 70 71 72 73 78 83 83 81 79 78 78 76 73 71 71 71 69 67 64 62 59 57 53 51 51 52
190 191 194 196 199 199 200 205 204 195 192 195 198 207 215 218 217 208 198 201 206 204 201 198 196 197 199 203 199 189 188 188 186 193 202 207 213 213 217 236 247 234 219 212 201 188 171 150 145 142 128 107 79 67 67 67 71 76 77 76 77 79 82 86 89 88 87 86 83 82 80 76 73 73 73 71 67 66 64 61 58 54 51 50 52
190 191 196 197 197 199 201 205 203 195 193 195 195 201 211 217 218 214 205 204 206 204 201 201 200 198 199 200 198 192 191 191 190 195 203 208 211 214 220 233 238 225 216 215 205 187 167 149 144 144 132 109 83 67 64 69 78 82 83 83 83 87 89 91 91 91 91 90 88 86 84 80 77 76 76 74 69 67 65 62 59 55 52 52 53
190 192 196 196 198 199 197 196 196 193 192 194 195 199 207 215 219 218 213 208 207 206 203 202 202 201 199 198 197 195 193 192 194 197 203 208 212 215 221 228 230 221 214 214 207 190 169 152 146 148 139 115 92 71 62 69 83 90 93 91 90 93 95 96 96 96 95 93 92 91 87 83 78 75 75 73 69 66 64 62 60 57 55 55 56
189 191 196 198 200 200 195 192 192 193 193 193 195 198 204 211 216 220 220 213 211 210 206 205 203 199 198 198 198 197 195 194 196 199 203 208 212 216 221 226 226 218 213 212 206 192 174 161 156 159 153 133 107 78 64 74 92 99 104 103 100 101 100 102 103 101 99 97 94 93 89 84 76 72 70 68 65 62 60 60 58 56 56 57 58
190 190 194 199 201 199 195 193 194 196 196 194 194 199 204 209 213 218 221 216 212 210 207 207 203 195 196 200 199 198 197 195 197 200 204 208 213 217 221 225 224 215 212 211 207 196 181 171 168 171 169 156 136 93 65 81 108 113 116 116 114 111 106 107 109 108 104 98 94 91 88 84 77 71 66 63 61 59 57 57 55 53 53 55 57
190 192 195 199 201 199 195 195 197 201 201 198 198 202 205 207 210 216 221 218 212 206 203 207 205 195 195 200 200 197 195 196 199 202 204 207 212 219 222 222 220 214 208 207 204 196 185 181 179 180 182 174 161 144 90 103 138 130 127 129 127 121 115 114 113 113 109 101 96 92 88 84 78 71 65 59 58 58 58 57 54 52 52 52 54
189 192 196 200 203 203 200 197 197 199 202 203 205 207 207 208 210 213 214 214 213 205 201 205 205 199 198 200 199 195 194 197 201 201 201 206 214 220 222 221 218 212 207 204 199 192 187 187 189 191 191 190 189 194 178 152 166 150 137 137 138 130 125 124 123 118 114 109 102 95 89 85 77 70 64 58 54 54 57 58 56 53 52 52 53
189 191 194 197 202 205 204 201 198 197 201 206 209 212 211 210 210 210 209 211 213 207 201 203 204 203 204 202 198 196 195 196 199 199 200 208 218 223 222 219 215 210 206 202 196 192 189 190 196 200 200 205 210 211 206 188 178 165 150 143 143 140 136 136 134 127 122 120 116 105 97 90 80 71 64 57 53 51 52 55 56 55 53 53 54
189 191 193 194 198 202 204 204 200 195 197 204 209 210 211 211 212 216 214 212 211 206 201 203 205 205 205 201 199 198 196 196 198 200 204 214 223 224 218 213 210 208 205 200 195 193 194 195 199 204 205 211 217 216 211 199 190 179 163 153 149 149 149 149 147 141 133 128 126 118 110 104 91 75 65 58 53 49 48 50 53 55 54 53 54
189 191 193 193 195 200 204 206 204 197 195 203 207 205 206 209 214 223 222 211 206 204 202 204 207 207 205 201 200 200 198 197 199 201 209 221 227 222 213 206 204 205 204 199 195 194 198 201 204 208 210 214 216 215 210 202 198 189 173 163 158 158 160 160 157 153 142 134 132 128 120 113 101 84 69 61 53 49 47 47 51 55 55 53 54
191 192 193 194 194 197 203 207 209 206 202 206 210 209 209 209 211 219 222 211 204 204 207 208 207 207 205 202 201 203 203 201 201 204 215 229 229 216 207 201 201 203 201 197 196 198 202 206 210 212 214 215 215 213 210 204 203 195 180 170 164 163 166 168 166 163 152 141 138 135 129 121 112 99 80 67 57 49 47 46 49 55 57 55 54
191 192 194 197 196 196 201 205 209 210 207 207 210 211 213 213 212 214 218 214 212 215 217 212 205 205 210 209 206 206 205 202 202 207 220 233 228 209 201 198 199 199 198 197 199 203 207 210 214 216 215 213 214 213 209 205 205 197 185 174 168 167 171 173 174 170 160 154 149 144 144 136 123 115 98 81 64 51 47 47 50 55 59 58 55
193 192 194 197 199 201 203 204 207 208 208 209 209 210 213 214 215 218 222 220 218 218 219 213 204 201 208 213 210 207 204 202 206 214 226 237 230 208 198 197 196 195 196 197 201 206 211 216 218 217 214 213 214 214 209 207 205 197 187 178 170 170 174 177 178 176 169 167 164 158 159 155 139 129 114 96 77 56 47 47 51 54 59 61 58
197 195 195 195 197 201 204 206 207 206 207 210 211 212 214 215 216 217 219 218 216 215 216 213 205 202 209 213 210 209 207 205 211 220 232 242 234 211 200 197 196 194 194 197 203 208 213 217 218 215 213 212 215 216 210 207 203 194 187 180 173 171 177 180 181 182 179 179 178 171 168 166 157 143 127 112 93 65 44 46 54 54 56 59 58
200 199 203 202 199 201 208 211 209 207 208 210 213 214 214 217 219 218 215 214 214 215 217 213 207 207 211 210 208 211 212 210 212 220 234 243 230 208 198 197 197 196 197 200 206 211 213 212 211 211 212 214 216 215 210 207 201 191 183 178 174 174 179 182 184 186 184 182 180 177 173 172 171 160 142 128 110 80 47 44 57 58 55 56 57
198 198 206 209 207 206 210 213 213 212 211 212 216 218 218 219 222 221 219 217 215 217 222 219 212 207 205 203 206 212 214 212 211 219 236 241 219 198 193 195 196 197 201 205 208 212 211 206 203 205 209 213 213 210 209 207 198 189 182 175 172 176 181 183 186 187 186 183 179 179 180 177 178 176 158 143 128 98 59 49 60 61 55 55 57
186 185 189 201 208 210 212 213 214 215 217 216 216 219 223 225 226 225 225 224 223 223 225 222 216 210 205 203 204 209 215 216 216 224 234 227 203 192 192 194 195 196 201 206 208 210 208 204 203 202 204 208 207 204 207 207 197 189 183 174 169 175 181 184 187 186 187 190 186 184 188 185 184 186 172 157 146 122 79 61 70 68 59 61 63
182 181 177 187 202 211 215 216 215 216 218 220 220 221 227 231 231 230 230 230 230 231 227 220 217 215 209 202 201 209 219 218 216 222 223 207 193 191 192 193 193 193 197 202 206 207 206 205 206 204 201 203 202 201 207 207 198 190 184 174 167 171 177 182 189 189 189 197 198 196 195 191 190 192 183 172 164 156 141 96 93 94 85 78 71
175 175 177 186 199 207 212 215 219 220 219 221 223 226 234 235 229 227 230 231 232 233 226 216 213 212 206 202 209 217 214 205 205 213 211 198 191 192 195 196 194 193 197 202 205 206 206 206 206 204 202 200 198 198 205 207 201 192 184 175 169 172 176 179 186 192 195 198 199 197 195 194 193 194 189 183 180 180 184 164 127 120 102 83 74
168 168 179 180 189 204 211 216 222 226 225 225 224 228 237 237 226 219 221 223 225 225 220 213 210 208 205 210 221 214 193 183 201 209 203 195 192 191 194 196 194 193 197 204 209 210 208 206 206 205 202 200 197 195 198 203 201 194 186 178 174 175 177 178 180 188 196 197 195 195 196 197 195 192 186 182 180 183 182 171 150 137 115 89 77
168 163 173 166 167 190 207 218 226 230 231 230 226 229 235 233 226 224 225 226 226 223 219 215 211 207 209 218 219 202 178 179 205 206 197 194 194 192 193 193 192 193 197 203 211 215 213 209 207 206 203 200 196 194 193 195 197 195 189 183 180 179 180 181 181 183 189 194 196 196 198 198 196 192 185 179 177 177 174 167 159 152 136 107 88
153 131 133 143 141 157 187 211 222 228 229 228 228 231 231 228 229 232 231 231 231 226 220 216 211 210 215 215 205 191 182 193 205 204 198 196 193 192 192 192 192 195 197 200 208 218 219 214 210 208 207 202 197 194 192 191 192 193 191 188 186 184 183 184 185 186 188 190 189 188 189 191 192 190 184 178 176 173 169 167 164 157 147 127 107
72 59 67 81 100 115 163 210 220 223 225 226 229 232 231 230 234 233 223 223 228 225 220 217 213 214 216 208 195 189 193 200 205 206 203 199 195 194 195 194 194 197 200 202 208 216 221 219 214 211 210 207 200 196 194 194 194 194 192 191 191 189 186 187 190 192 193 190 184 181 183 185 187 186 181 177 174 171 167 168 168 162 155 146 134
55 37 45 60 72 110 155 206 222 220 220 226 230 231 231 233 236 231 216 210 215 217 218 218 216 215 211 202 196 198 199 201 205 204 200 198 197 198 200 198 198 199 201 205 212 217 220 220 216 213 211 209 206 201 198 198 199 197 195 194 193 192 191 191 194 197 198 197 191 186 184 185 185 183 178 175 174 171 170 173 174 171 166 161 164
63 55 63 69 73 97 144 182 194 177 173 203 223 231 235 235 234 229 218 205 198 200 207 214 216 213 207 201 202 203 202 206 208 201 195 196 196 198 201 201 201 202 202 206 216 224 225 222 218 215 213 210 209 207 207 207 206 203 201 198 196 195 194 195 198 201 203 203 203 198 192 187 186 184 180 178 177 176 179 182 181 179 180 183 193
82 81 82 77 74 80 99 154 174 160 160 177 205 229 236 235 231 227 224 212 190 184 195 207 209 208 206 204 203 201 203 211 211 200 193 195 197 200 201 199 199 203 206 212 223 230 233 229 223 219 216 214 214 216 216 215 214 211 209 206 202 201 200 199 201 205 210 213 215 212 202 193 190 189 187 187 188 187 191 196 195 194 195 202 214
90 93 96 94 88 80 71 72 124 192 193 191 204 223 227 226 224 218 216 211 193 182 191 201 203 204 206 206 202 200 203 211 212 201 193 194 199 203 202 201 204 206 206 213 224 226 234 237 230 226 223 223 228 232 227 220 217 215 214 211 208 208 208 205 204 206 212 218 223 223 215 204 199 196 195 197 201 203 205 211 215 215 214 218 223
86 86 92 98 98 91 86 87 95 134 168 173 230 235 219 210 209 206 205 203 193 187 193 199 203 206 208 205 202 201 201 205 206 201 195 195 199 203 203 205 211 213 211 215 225 227 228 233 233 232 230 230 232 233 226 222 220 218 215 211 208 208 210 209 209 212 217 222 227 229 226 219 212 207 203 205 210 213 216 222 228 231 232 233 235